FENGYUN 1C DEB

Satellite information

Favourite Embed

Satellite Type and Status

DEBRISIN ORBIT

Key statistics

Satellite FENGYUN 1C DEB at a glance.

Uptime

9714

Days in orbit

Revolutions

≈ 14.2

Per day

Orbit

SSO

Sun Synchronous Orbit

Inclination

99.2

Latest

Satellite identification and parameters

Extended collection of information and parameters for FENGYUN 1C DEB.

Object identification

Identified? True

Debris? True

Object name: FENGYUN 1C DEB

International designator: 1999-025CDA

Object number (NORAD): 31692

Object ID (CCSDS): 31692

Country: PEOPLES REPUBLIC OF CHINA (PRC)

Current information (Y/N): Y

RCS size: SMALL

Orbital parameters

Period: 101.528 minutes

Inclination: 99.1764 deg

SMA: 7209.165 km

Apoapsis: 894.394 km

Periapsis: 767.666 km

RAAN: 341.6931 deg

Eccentricy: 0.00878941

Argument of periapsis: 85.951 deg

Mean anomaly: 275.1705 deg

Mean motion: 14.18323577 rev/day

Mean motion (dot): 0.00009685 rev/day2

B* drag term: 0.0045400463 1/REarth

Two-line elements (TLE)

Creation date: Dec. 11, 2025, 10:54 a.m.

Reference frame: TEME

Reference center: EARTH

Epoch: Dec. 11, 2025, 6:10 a.m. UTC

TLE line 0: 0 FENGYUN 1C DEB

TLE line 1: 1 31692U 99025CDA 25345.25750552 .00009685 00000-0 45400-2 0 9999

TLE line 2: 2 31692 99.1764 341.6931 0087894 85.9510 275.1705 14.18323577581888

Live tracking on map

Real-time ground track for satellite FENGYUN 1C DEB.

In-orbit conjunctions

A list of the most updated potential collisions computed for object FENGYUN 1C DEB.

Target Orbit TCA Probability of collision Miss distance Type
METEOR 1-24 LEO 2025-05-13 01:27:13 0.000512839 130.0 (m) PAYLOAD
HEALTHSAT 1 SSO 2025-03-18 21:42:02 0.000772567 187.0 (m) PAYLOAD
PORCUPINE 1 LEO 2025-02-09 02:31:04 0.0001520573 467.0 (m) PAYLOAD
FENGYUN 1C DEB SSO 2024-11-09 07:57:20 0.0002883501 331.0 (m) DEBRIS
IRS 1B SSO 2024-09-02 04:07:24 0.0001005401 520.0 (m) PAYLOAD

Associated space launch

Chinese polar orbiting meteorological satellite

FENGYUN 1C DEB was lifted into orbit during the mission ‘Long March 4B | Feng Yun 1C’, on board a Long March 4B space rocket.

The launch took place on May 10, 1999, 1:33 a.m. from Launch Complex 7.

For more information about the launch, click the button.

Launch to space Long March 4B | Feng Yun 1C
Long March 4B | Feng Yun 1C

Agency: N/A

Status: Launch Successful

Launch date: May 10, 1999, 1:33 a.m. UTC

Rocket: Long March 4B

Launch pad: Launch Complex 7

Location: Taiyuan Satellite Launch Center, People's Republic of China

...

Latest news about this satellite

There are no fresh news available about this satellite. Check back as we update our databases every day.


Newsletter sign-up

Weekly statistics, charts and insights to help you stay on top of the space industry.